GFSNE_925_temp_000.txt.gz
Temp
21 21 21 22 23 22 22 21 22 23 24 24 23 22 20 21 20 19 19 18 18 18 18 18 18 18 18 18 18 18 18 18 18 18 19 19 19 20
22 22 21 22 22 22 22 22 22 22 23 23 22 22 21 20 19 19 18 18 18 18 18 17 18 17 18 17 17 17 17 17 18 18 18 19 19 19
21 21 21 21 21 23 23 22 22 22 22 22 22 21 20 20 19 19 19 19 19 19 18 17 17 17 17 16 16 17 16 16 16 17 18 18 19 19
21 21 21 22 22 21 21 21 22 21 20 20 20 20 20 20 20 19 19 19 19 19 18 17 17 17 17 16 16 16 16 16 16 16 16 17 18 19
21 21 21 22 21 22 21 21 22 21 21 21 20 20 20 20 20 19 20 20 19 19 19 18 18 17 17 17 17 17 16 16 16 16 16 16 17 18
21 21 21 21 21 21 21 21 20 20 21 20 20 21 21 20 21 20 20 21 21 20 20 19 19 18 18 18 18 18 17 17 17 17 16 16 16 17
21 21 21 21 21 21 21 21 20 20 20 20 21 21 21 20 20 20 20 20 19 20 20 20 19 19 19 19 19 19 18 17 17 17 16 16 16 17
21 21 20 20 20 20 20 19 18 18 18 19 19 20 19 17 19 19 19 18 19 19 18 18 18 18 19 19 19 18 17 17 16 15 16 16 16 16
20 19 19 19 19 19 19 18 18 18 17 16 17 17 17 18 17 16 16 17 17 17 16 17 18 18 19 19 18 17 16 15 15 15 15 15 15 16
19 19 19 18 18 18 19 18 18 18 18 17 16 16 16 15 14 14 14 14 14 15 16 18 18 19 18 17 16 14 14 14 14 14 15 15 15 15
20 20 21 19 17 18 16 17 18 18 18 16 15 14 14 14 13 13 15 15 15 14 16 17 18 17 16 14 14 14 14 14 14 14 14 15 15 15
19 19 19 18 17 16 15 17 17 17 17 16 15 15 15 15 15 13 13 13 15 18 18 17 16 13 12 12 13 13 13 14 15 16 15 15 15 15
17 18 18 16 16 15 15 15 16 14 15 15 16 17 17 17 17 16 15 14 15 16 16 14 12 11 11 11 11 12 13 14 14 15 16 15 15 15
18 20 17 16 14 14 14 14 13 13 15 16 17 17 17 17 16 15 14 13 14 13 13 13 12 11 10 11 12 12 13 14 14 15 18 15 15 16
19 17 15 14 14 13 13 12 12 14 16 16 16 16 16 15 14 15 15 15 15 15 14 13 11 10 10 11 12 13 13 14 15 17 19 18 13 15
15 15 14 13 14 14 13 11 13 14 14 14 15 15 14 15 15 15 15 15 15 16 15 14 11 11 11 11 13 14 14 14 15 16 17 17 16 17
16 16 16 17 17 16 15 15 14 14 14 14 14 14 14 14 14 14 14 15 15 14 12 14 13 11 11 11 12 12 12 12 14 15 16 15 15 17
15 18 18 17 17 17 16 15 15 14 14 13 13 13 14 14 14 13 14 14 14 14 10 11 12 11 11 12 11 11 11 11 12 15 15 15 15 15
17 18 17 17 16 16 15 15 14 14 12 12 13 13 13 13 13 14 14 14 14 14 10 11 12 11 10 11 12 11 10 10 11 12 15 15 16 15
17 17 17 16 15 14 14 14 14 13 13 13 12 13 13 13 13 14 14 14 14 14 11 12 10 9 9 10 10 11 10 9 10 11 14 16 16 16
17 16 15 15 14 14 13 12 11 12 11 11 12 13 13 13 13 14 14 14 14 14 12 8 8 9 10 10 11 10 10 10 10 10 10 13 16 15
16 15 14 14 13 12 12 11 11 12 12 12 12 12 12 13 13 13 14 15 15 14 11 10 11 10 9 9 10 10 9 9 9 9 10 10 9 14
14 14 14 13 12 11 11 11 12 12 12 12 12 12 12 12 13 13 14 15 15 14 13 14 11 9 9 8 9 9 9 9 8 9 9 10 12 11

GFSNE_925_temp_003.txt.gz
Temp
22 22 22 23 24 24 23 22 22 22 23 24 24 23 22 22 21 20 20 19 19 18 18 18 18 18 18 18 18 18 18 18 18 18 18 19 19 19
22 23 22 23 23 23 23 23 23 23 23 23 23 23 22 22 22 21 20 20 19 19 19 18 18 18 18 18 17 18 17 17 17 17 18 18 19 19
21 22 22 22 22 23 24 24 23 23 23 23 22 22 21 21 21 20 20 20 20 20 20 19 18 18 18 18 17 17 17 17 17 17 17 17 17 18
22 22 22 22 21 21 22 23 22 22 22 21 21 21 21 21 21 20 20 21 21 21 20 19 19 19 18 18 18 18 17 17 17 17 17 17 17 17
22 22 22 22 22 22 22 22 22 22 22 22 21 21 21 21 21 21 21 20 20 20 20 20 19 19 18 19 18 18 18 18 18 18 18 18 17 17
22 22 22 22 21 21 20 21 21 21 21 22 22 21 21 21 21 21 20 20 20 21 21 20 20 20 19 19 19 19 19 19 19 18 18 18 18 18
22 22 21 21 21 20 21 21 20 21 22 22 22 22 21 22 20 20 20 20 20 21 20 20 20 20 20 19 19 20 20 19 19 19 18 18 18 18
21 21 21 21 20 20 20 19 18 17 18 19 20 21 19 19 18 17 18 19 20 19 19 19 19 19 19 19 19 20 19 19 18 18 17 17 17 17
20 20 20 21 20 19 19 19 18 18 17 18 17 17 17 17 17 17 18 17 17 18 17 17 17 18 18 19 20 19 19 18 17 16 16 15 15 16
21 21 20 20 19 20 19 19 18 18 18 18 16 16 17 17 15 15 15 15 16 17 18 17 17 18 19 19 19 18 17 16 15 15 15 15 14 14
21 21 20 19 19 19 19 18 18 18 19 19 18 17 16 16 15 14 16 17 17 17 16 17 19 18 18 18 17 16 16 15 14 14 14 14 14 15
21 19 19 19 19 18 17 17 18 18 19 19 17 16 16 16 16 16 15 16 17 17 18 17 17 17 17 15 15 14 12 12 12 13 13 14 14 14
21 18 18 19 17 16 16 16 17 17 16 16 17 17 18 18 18 18 17 16 16 16 16 15 15 15 13 14 13 12 11 11 12 12 13 14 15 15
20 21 19 18 16 16 16 15 15 14 15 16 18 18 18 18 18 17 15 15 15 15 15 14 14 13 13 12 12 12 12 12 12 12 13 14 14 16
18 18 17 16 16 15 15 13 13 14 15 17 17 18 17 17 15 16 16 16 16 16 15 14 13 12 12 12 12 11 12 13 13 14 14 15 15 14
16 16 15 15 15 14 14 13 13 14 16 16 15 16 16 16 16 16 15 15 16 16 15 14 13 12 12 12 11 11 12 11 11 12 12 16 17 14
18 18 17 17 18 17 16 15 15 16 16 16 16 15 15 15 15 15 15 15 16 16 15 14 13 13 13 12 11 11 11 11 10 11 11 15 17 16
17 18 19 19 19 19 18 17 17 16 16 15 15 14 15 14 15 14 15 15 16 16 16 15 13 12 11 11 12 11 11 10 10 10 11 14 15 16
17 20 20 19 19 18 18 17 17 16 14 14 14 14 14 14 14 15 15 15 15 15 15 13 11 10 10 10 11 11 10 9 9 10 10 11 15 15
17 19 19 19 18 17 17 16 16 15 15 14 14 14 14 14 14 15 15 15 15 15 15 13 10 9 9 10 10 10 10 9 8 9 10 10 13 15
20 19 18 18 17 16 16 15 14 13 13 12 13 14 14 14 14 15 15 15 15 16 15 13 11 10 10 11 10 10 10 9 9 9 9 9 11 15
19 18 18 17 16 15 14 14 13 14 14 14 14 14 14 14 14 14 15 15 16 16 15 14 12 11 11 9 9 10 9 9 9 9 8 8 8 10
18 17 17 16 15 14 13 13 13 14 14 14 13 13 13 13 14 14 15 16 16 16 15 12 13 11 11 8 8 9 9 8 8 8 8 8 7 8

GFSNE_925_temp_006.txt.gz
Temp
22 22 22 22 23 24 24 23 22 20 20 23 23 23 23 22 22 21 21 20 20 20 19 19 19 19 18 18 18 18 18 18 18 18 18 18 18 19
22 22 22 22 23 23 23 23 23 22 20 23 23 22 22 22 22 21 21 20 20 20 20 20 19 19 19 19 19 18 18 18 18 18 18 18 18 18
22 22 22 22 22 22 23 23 23 23 22 22 22 22 22 21 21 21 21 21 20 20 20 21 20 19 19 19 19 19 19 18 18 18 18 18 18 17
21 22 22 22 22 22 22 22 22 23 22 21 21 21 21 21 21 21 20 20 20 21 21 20 20 20 20 19 19 19 19 19 19 18 18 18 18 18
22 22 22 22 22 21 21 21 21 21 21 20 21 21 21 21 21 21 21 21 20 20 20 20 20 20 20 20 19 19 19 19 19 19 18 18 18 18
22 22 22 22 21 21 21 21 20 20 19 18 17 19 21 21 21 20 20 20 20 20 20 20 20 21 20 20 20 20 19 19 19 19 19 19 18 18
22 22 22 22 21 21 20 20 19 19 19 18 18 17 19 20 19 19 18 18 18 19 19 19 19 19 19 19 19 19 19 19 19 19 19 19 18 18
22 22 22 21 21 21 20 20 20 20 19 18 17 16 17 19 18 18 17 17 17 18 18 17 18 18 17 18 18 18 19 19 19 18 18 18 18 17
22 21 21 21 21 20 20 20 20 20 19 19 18 17 17 18 17 16 16 16 15 16 16 16 16 17 17 17 18 18 18 19 18 18 17 18 18 17
21 21 21 20 20 20 20 19 19 19 18 18 18 18 18 17 16 16 16 15 15 16 17 15 17 16 17 17 17 17 18 17 17 17 16 16 15 15
21 21 20 20 20 21 19 18 18 18 18 18 19 18 17 17 17 16 15 15 16 16 17 17 17 16 16 16 16 16 16 15 15 14 13 13 12 12
20 20 20 20 20 20 18 17 17 17 18 18 17 17 17 17 18 17 16 14 15 15 16 16 15 15 15 15 15 14 14 14 13 13 13 13 12 12
20 20 20 20 19 19 18 17 16 16 16 16 16 17 17 18 18 17 16 14 15 15 15 15 14 14 14 13 14 14 13 13 12 12 12 12 12 12
20 20 19 19 19 17 16 16 15 15 15 15 16 17 17 18 17 16 16 16 16 15 15 15 14 14 13 12 12 13 13 13 12 12 12 11 12 13
18 18 17 17 17 16 16 16 15 15 14 15 16 16 16 16 16 16 16 16 15 15 15 16 15 14 12 12 12 12 12 11 11 11 11 10 11 11
16 17 17 17 16 16 16 16 15 15 15 16 15 16 16 16 15 15 15 15 15 15 16 16 16 14 13 12 11 12 11 11 11 10 10 10 10 12
17 17 16 16 16 16 15 15 16 15 15 16 16 15 15 15 15 15 15 14 14 15 15 16 14 13 12 12 10 11 11 11 10 9 9 10 10 11
18 19 18 19 19 19 16 16 16 16 16 15 15 14 14 14 14 14 14 15 15 15 15 15 13 12 11 11 12 11 11 10 9 9 9 10 10 10
18 18 19 20 19 19 18 18 17 17 16 15 15 15 14 14 14 14 15 15 15 15 15 15 13 10 10 11 11 11 10 9 9 9 9 9 9 9
18 18 19 19 19 18 17 17 16 15 15 14 14 14 14 14 14 14 15 15 15 15 15 15 13 11 9 9 10 11 11 10 8 8 8 8 8 10
18 19 19 19 18 17 17 16 15 14 14 13 13 13 14 14 14 14 14 15 15 15 15 14 13 12 11 11 10 10 11 10 8 8 7 7 8 9
19 19 19 18 17 16 15 15 14 14 14 14 14 14 14 14 14 14 14 15 15 16 16 14 14 12 11 9 9 9 10 9 8 8 7 6 7 7
18 18 18 17 16 15 14 14 14 14 14 14 14 13 13 13 14 14 14 15 16 16 15 15 14 13 11 10 9 8 8 8 8 7 7 6 6 6

GFSNE_925_temp_009.txt.gz
Temp
22 22 22 22 22 22 23 23 22 17 17 22 23 23 22 22 22 21 21 21 20 20 20 20 20 20 19 19 19 19 19 19 19 19 19 19 18 18
22 21 22 22 22 22 22 22 23 22 17 22 22 22 22 22 21 21 21 21 21 21 21 20 20 20 20 20 19 19 19 19 19 19 18 18 18 18
22 22 21 22 22 22 22 22 22 21 20 21 22 22 22 22 22 21 21 21 21 21 21 20 20 20 20 20 19 19 19 19 19 19 18 18 18 18
22 22 22 22 22 22 22 22 21 21 21 20 21 21 21 21 21 21 21 21 20 20 20 20 20 20 20 20 20 20 20 19 19 19 19 18 18 18
22 22 21 21 22 22 21 21 21 21 21 20 20 20 20 20 20 20 21 20 20 20 20 20 20 20 20 20 20 20 20 19 19 19 19 19 19 19
22 22 22 22 22 21 21 21 21 21 20 20 20 20 20 20 19 19 19 19 19 19 19 19 19 19 19 19 19 18 18 19 19 19 19 19 19 19
22 22 22 22 22 21 21 21 21 21 20 20 18 18 18 18 19 18 18 18 18 18 18 18 18 18 18 18 18 18 18 18 18 18 18 18 18 18
21 22 22 22 22 21 21 21 21 20 20 18 18 17 18 17 18 18 17 16 15 17 17 16 17 16 17 17 17 17 17 17 17 17 18 17 17 17
21 21 21 21 21 21 21 21 21 20 20 19 18 18 18 18 18 17 17 16 16 17 16 15 17 16 17 17 16 16 16 17 17 17 17 17 17 16
21 21 21 21 21 21 20 20 20 20 19 18 18 18 18 18 18 17 16 16 16 16 16 13 16 16 16 16 16 16 16 16 16 16 16 15 15 14
21 21 21 21 21 20 20 20 20 19 19 18 18 18 18 18 17 16 16 15 14 15 16 15 15 15 15 15 15 15 15 15 15 15 15 14 14 13
20 20 20 20 20 20 19 19 18 18 17 17 17 16 17 17 17 17 16 14 13 13 15 15 15 15 14 14 15 14 14 14 13 13 13 13 13 12
20 20 20 20 20 19 19 18 17 16 16 16 16 16 16 17 17 16 16 15 15 14 15 15 14 15 14 13 14 14 13 13 12 13 13 12 12 11
19 19 19 20 19 19 18 17 16 16 16 16 15 15 16 16 16 16 16 16 15 15 15 15 15 15 14 12 13 13 13 12 12 12 12 12 11 10
19 18 18 18 18 18 17 17 17 16 16 15 15 15 15 16 15 15 15 15 15 15 15 15 15 15 14 13 11 12 11 11 12 12 10 10 10 9
18 18 17 17 17 17 16 16 17 17 16 15 15 15 15 15 15 15 14 14 14 14 15 15 15 14 14 14 12 11 12 10 11 10 10 9 9 9
17 16 15 15 16 16 16 16 16 16 15 15 15 15 15 15 14 14 14 14 14 14 14 15 15 14 14 13 11 12 11 11 11 10 9 9 9 9
16 16 16 17 17 17 17 16 16 16 15 15 15 15 14 14 14 14 14 14 14 14 14 15 14 13 13 13 12 12 11 10 10 9 9 8 8 8
17 17 18 18 18 18 17 17 16 16 15 14 14 14 14 14 14 14 14 14 14 14 15 14 13 12 8 9 11 12 10 10 9 9 8 8 7 7
18 18 18 18 18 18 17 17 16 15 14 14 14 14 13 13 13 14 14 13 14 14 14 14 13 13 10 9 10 10 10 9 9 8 7 7 6 7
18 18 18 18 17 17 16 15 15 14 14 14 14 13 13 13 13 13 13 14 14 14 13 14 15 14 12 11 9 9 9 9 8 7 6 6 6 7
18 18 17 17 17 16 16 15 14 14 14 14 14 13 13 13 13 13 13 13 14 14 14 15 15 13 12 10 9 8 7 7 7 7 6 5 5 6
18 18 17 17 16 16 15 15 14 14 14 14 13 13 13 13 13 13 13 13 13 14 14 14 14 12 11 10 9 8 7 6 7 6 6 4 4 4